This is the latest recevied weather packets stored in our database for station/object DC4AT. If no packets are shown the sender has not sent any weather packets the latest 10 day(s).
| Time | Temp. | Humidity | Pressure | Rain* | Wind** | Luminosity | Snow |
|---|---|---|---|---|---|---|---|
| 1777849418 | 15.56° C | 67% | 1012.4 hPa | 0 mm | - | 0 W/m² | - |
| 1777848818 | 16.11° C | 64% | 1012.3 hPa | 0 mm | - | 0 W/m² | - |
| 1777848218 | 16.67° C | 62% | 1012.3 hPa | 0 mm | - | 0 W/m² | - |
| 1777847618 | 16.67° C | 61% | 1012.4 hPa | 0 mm | - | 0 W/m² | - |
| 1777847018 | 16.67° C | 60% | 1012.5 hPa | 0 mm | - | 0 W/m² | - |
| 1777846418 | 17.22° C | 58% | 1012.5 hPa | 0 mm | - | 0 W/m² | - |
| 1777845818 | 17.22° C | 57% | 1012.6 hPa | 0 mm | - | 0 W/m² | - |
| 1777845218 | 17.22° C | 56% | 1012.7 hPa | 0 mm | - | 0 W/m² | - |
| 1777844618 | 17.78° C | 56% | 1012.7 hPa | 0 mm | - | 0 W/m² | - |
| 1777844018 | 17.78° C | 55% | 1012.7 hPa | 0 mm | - | 0 W/m² | - |
| 1777843418 | 17.78° C | 55% | 1012.7 hPa | 0 mm | - | 0 W/m² | - |
| 1777842818 | 17.78° C | 55% | 1012.6 hPa | 0 mm | - | 0 W/m² | - |
| 1777842218 | 17.78° C | 55% | 1012.3 hPa | 0 mm | - | 0 W/m² | - |
| 1777841618 | 17.78° C | 53% | 1012.3 hPa | 0 mm | - | 0 W/m² | - |
| 1777841019 | 18.33° C | 53% | 1012.1 hPa | 0 mm | - | 0 W/m² | - |
| 1777840419 | 18.33° C | 52% | 1012 hPa | 0 mm | - | 0 W/m² | - |
| 1777839819 | 18.33° C | 51% | 1012.2 hPa | 0 mm | - | 0 W/m² | - |
| 1777839219 | 18.33° C | 50% | 1012.1 hPa | 0 mm | - | 0 W/m² | - |
| 1777838619 | 18.33° C | 50% | 1012.1 hPa | 0 mm | - | 0 W/m² | - |
| 1777838019 | 18.89° C | 49% | 1012.1 hPa | 0 mm | - | 0 W/m² | - |
| 1777837419 | 18.89° C | 51% | 1012 hPa | 0 mm | - | 0 W/m² | - |
| 1777836819 | 18.89° C | 50% | 1011.7 hPa | 0 mm | - | 0 W/m² | - |
| 1777836219 | 18.89° C | 50% | 1011.6 hPa | 0 mm | - | 0 W/m² | - |
| 1777835619 | 18.89° C | 51% | 1011.3 hPa | 0 mm | - | 0 W/m² | - |
| 1777835019 | 19.44° C | 50% | 1011.2 hPa | 0 mm | - | 0 W/m² | - |
* Rain latest hour (hover to see other rain measurements)
** Current wind speed in m/s (hover to see current wind gust speed)